Hermiston, OR

2:57 AM PDT on August 17, 2017 (GMT -0700)
Hermiston Municipal

Weather History for KHRI - March, 2013

Change the Weather History Date:

Wednesday, March 27, 2013

  Actual Average Record
Temperature  
Mean Temperature 54 °F 48 °F  
Max Temperature 64 °F 61 °F 78 °F (2015)
Min Temperature 45 °F 35 °F 15 °F (1944)
Degree Days  
Heating Degree Days 10    
Growing Degree Days 4 (Base 50)    
Moisture  
Dew Point 44 °F    
Average Humidity 75    
Maximum Humidity 93    
Minimum Humidity 46    
Precipitation  
Precipitation 0.13 in 0.04 in 0.40 in (1928)
Month to date precipitation 0.95  
Year to date precipitation 3.23  
Sea Level Pressure  
Sea Level Pressure 29.94 in    
Wind  
Wind Speed 4 mph (ENE)    
Max Wind Speed 12 mph    
Max Gust Speed -    
Visibility 10 miles    
Events Rain    
T = Trace of Precipitation, MM = Missing Value Source: NWS Daily Summary

Daily Weather History Graph

Daily Weather History Graph

Search for Another Location

Airport or City:

Trip Planner

Search our weather history database for the weather conditions in past years. The results will help you decide how hot, cold, wet, or windy it might be!

Date:

Astronomy

Mar. 27, 2013 Rise Set
Actual Time 6:45 AM PDT 7:19 PM PDT
Civil Twilight 6:16 AM PDT 7:49 PM PDT
Nautical Twilight 5:40 AM PDT 8:24 PM PDT
Astronomical Twilight 5:03 AM PDT 9:01 PM PDT
Moon 8:13 PM PDT (3/27) 6:37 AM PDT (3/27)
Length of Visible Light 13h 33m
Length of Day
12h 33m
Full, 100% of the Moon is Illuminated
Mar 27
Full
Apr 2
Last Quarter
Apr 10
New
Apr 18
First Quarter
Apr 25
Full

Hourly Weather History & Observations

Time (PDT) Temp. Windchill Dew Point Humidity Pressure Visibility Wind Dir Wind Speed Gust Speed Precip Events Conditions
12:53 AM 46.9 °F - 42.1 °F 83% 29.94 in 10.0 mi WSW 3.5 mph - N/A   Overcast
1:53 AM 46.9 °F - 43.0 °F 86% 29.94 in 10.0 mi WNW 4.6 mph - 0.02 in   Overcast
2:53 AM 46.0 °F 42.5 °F 42.1 °F 86% 29.92 in 6.0 mi ENE 6.9 mph - 0.04 in Rain Rain
3:53 AM 45.0 °F - 43.0 °F 93% 29.94 in 10.0 mi Calm Calm - 0.01 in   Overcast
4:53 AM 45.0 °F 43.5 °F 43.0 °F 93% 29.94 in 9.0 mi ESE 3.5 mph - N/A   Overcast
5:53 AM 45.0 °F 42.6 °F 43.0 °F 93% 29.95 in 9.0 mi SSE 4.6 mph - 0.05 in Rain Light Rain
6:53 AM 45.0 °F - 43.0 °F 93% 29.96 in 8.0 mi Calm Calm - 0.00 in   Overcast
7:53 AM 46.0 °F 44.8 °F 44.1 °F 93% 29.96 in 7.0 mi ESE 3.5 mph - N/A   Mostly Cloudy
8:53 AM 48.0 °F - 44.1 °F 86% 29.96 in 10.0 mi Calm Calm - N/A   Overcast
9:53 AM 53.1 °F - 46.0 °F 77% 29.96 in 10.0 mi Variable 3.5 mph - N/A   Mostly Cloudy
10:53 AM 54.0 °F - 46.9 °F 77% 29.96 in 10.0 mi North 4.6 mph - N/A   Mostly Cloudy
11:53 AM 55.9 °F - 43.0 °F 62% 29.96 in 10.0 mi Calm Calm - N/A   Clear
12:53 PM 59.0 °F - 45.0 °F 60% 29.95 in 10.0 mi Variable 3.5 mph - N/A   Clear
1:53 PM 62.1 °F - 45.0 °F 53% 29.93 in 10.0 mi NNE 4.6 mph - N/A   Clear
2:53 PM 63.0 °F - 45.0 °F 52% 29.91 in 10.0 mi North 5.8 mph - N/A   Clear
3:53 PM 64.0 °F - 43.0 °F 46% 29.90 in 10.0 mi NE 5.8 mph - N/A   Clear
4:53 PM 64.0 °F - 45.0 °F 50% 29.89 in 10.0 mi NE 11.5 mph - N/A   Clear
5:53 PM 63.0 °F - 45.0 °F 52% 29.90 in 10.0 mi NE 8.1 mph - N/A   Clear
6:53 PM 59.0 °F - 45.0 °F 60% 29.91 in 10.0 mi NNE 6.9 mph - N/A   Clear
7:53 PM 57.0 °F - 44.1 °F 62% 29.92 in 10.0 mi NE 5.8 mph - N/A   Partly Cloudy
8:53 PM 55.0 °F - 46.0 °F 72% 29.94 in 10.0 mi ESE 4.6 mph - N/A   Overcast
9:53 PM 53.1 °F - 46.9 °F 80% 29.96 in 10.0 mi Calm Calm - 0.01 in Rain Light Rain
10:53 PM 46.0 °F - 44.1 °F 93% 29.96 in 10.0 mi Calm Calm - N/A   Clear
11:53 PM 46.9 °F - 44.1 °F 90% 29.97 in 10.0 mi South 5.8 mph - N/A   Overcast